GFSGBSN_700_rhum_087.txt.gz
RH
99 93 99 93 98 97 97 100 97 98 99 98 99 94 99 98 97 91 91 83 78 66 55 48 45 39 34 30 27 22 25 28 28 26 26 11 4 7 12 21 34 38 36 36 34 30 28
99 96 100 100 100 97 99 98 97 98 99 99 100 100 99 100 99 95 95 83 79 66 56 50 42 36 33 30 31 28 27 27 27 20 13 5 9 42 43 36 34 31 27 28 25 27 23
70 82 96 99 95 100 100 98 100 100 100 99 99 99 99 98 100 98 89 86 77 62 55 43 36 35 34 31 29 30 29 20 15 22 14 20 44 50 46 43 41 36 36 34 31 29 25
53 58 73 99 94 100 99 100 100 100 100 100 100 98 99 98 100 98 91 85 73 57 41 36 35 33 28 16 22 21 20 20 17 10 19 16 49 51 47 48 46 46 44 42 25 20 18
35 44 49 64 95 98 100 100 99 99 100 100 100 99 99 100 99 91 86 68 57 43 36 28 15 9 12 18 20 21 21 16 13 16 14 10 25 46 40 37 47 46 40 31 25 29 28
38 47 51 54 65 86 97 100 100 99 100 100 100 100 100 100 100 97 78 62 32 25 17 5 2 6 6 33 29 22 13 12 17 39 40 31 29 25 22 37 48 49 40 35 35 33 31
50 50 54 64 99 97 100 100 99 100 100 100 100 100 99 100 100 99 60 20 10 8 5 4 14 11 14 18 7 8 10 12 29 44 56 52 50 28 27 33 36 35 35 35 34 33 32
52 55 72 100 99 94 100 100 99 99 100 99 100 99 100 98 98 87 47 7 7 11 16 4 2 2 2 5 16 27 16 17 56 45 48 51 51 30 38 38 38 38 35 33 32 30 31
50 69 94 100 98 100 100 100 100 99 98 98 95 100 98 79 71 28 7 4 3 2 3 3 3 5 22 18 37 56 32 26 48 52 48 51 46 41 40 41 40 37 40 39 36 36 35
70 92 100 100 100 99 99 98 98 98 96 96 97 90 55 77 37 16 7 4 3 3 4 17 19 20 34 33 31 34 22 25 35 36 46 46 43 43 41 44 44 43 42 38 35 35 47
98 100 100 99 100 100 99 96 96 97 99 98 83 56 90 50 22 7 5 4 3 3 56 39 49 63 55 48 51 36 50 26 20 45 45 40 40 39 39 38 38 40 41 37 36 42 49
99 100 99 98 97 96 96 95 94 94 97 97 92 68 38 11 7 6 7 4 4 7 62 48 55 43 30 22 36 46 38 37 35 26 35 39 30 38 36 35 38 40 46 51 52 49 56
97 96 96 97 97 97 96 96 95 94 97 76 48 27 13 7 20 6 5 5 8 56 29 33 41 37 24 22 28 19 21 35 48 51 48 39 39 41 42 37 39 43 53 68 58 61 60
96 97 94 97 96 96 97 95 95 97 96 79 28 13 17 9 9 6 5 6 51 33 30 31 32 32 23 11 11 13 14 17 23 29 25 25 28 24 29 44 45 50 50 64 73 70 59
95 96 96 96 96 97 99 96 96 93 72 47 29 9 8 10 7 7 6 17 52 43 32 30 24 13 14 17 18 22 29 29 34 58 62 68 49 32 43 39 48 51 50 47 55 54 60
94 93 95 96 97 96 95 95 80 42 24 9 13 26 9 8 8 7 6 38 43 38 34 26 11 15 20 28 30 30 30 28 25 44 43 61 71 49 49 52 51 48 37 52 59 91 81
97 93 93 94 96 97 96 95 79 50 41 37 9 9 9 8 7 6 9 47 37 35 28 10 28 28 34 32 34 36 31 27 27 30 38 37 58 63 63 49 55 49 52 50 52 65 87
95 94 94 100 100 95 86 67 46 15 10 10 12 26 15 8 6 9 59 52 46 42 15 11 16 26 42 47 51 48 43 40 40 41 41 43 50 60 56 44 41 69 60 58 60 65 65
96 100 98 96 92 61 32 16 24 23 10 12 13 29 11 7 28 59 66 56 38 41 64 63 60 57 64 61 56 49 49 50 53 54 48 54 66 80 44 32 39 72 94 94 87 76 96
98 99 97 89 61 59 48 24 11 18 17 13 22 14 8 31 74 83 67 47 37 48 58 56 74 68 72 68 62 57 50 55 64 66 67 66 64 62 85 69 74 91 84 92 95 98 98
97 96 94 86 53 19 10 26 26 9 10 12 24 38 36 51 49 76 58 62 75 64 67 54 80 54 58 70 65 55 56 65 68 54 71 77 84 85 82 55 62 78 87 78 91 94 98
94 67 54 25 32 44 16 9 9 9 9 10 13 40 83 93 69 54 48 62 62 70 54 84 74 64 71 68 70 66 69 74 78 47 60 82 79 81 71 57 73 64 58 63 56 96 74
86 49 22 13 10 9 9 10 12 10 9 9 19 35 67 78 48 81 79 73 65 69 63 58 66 66 66 70 69 60 54 62 75 54 38 46 73 85 76 64 86 76 51 39 41 94 76
87 39 29 19 12 10 11 24 10 10 9 13 8 16 43 78 76 74 81 73 69 69 70 62 73 73 68 72 63 46 32 30 25 21 38 63 82 88 92 67 92 46 45 60 84 97 98
93 58 33 25 14 13 45 10 10 10 9 9 8 14 24 70 73 73 71 64 62 62 72 72 78 78 62 48 49 60 55 62 55 64 70 95 83 95 86 86 71 42 88 98 88 98 99
96 87 54 35 17 12 16 10 10 10 9 9 12 17 31 72 70 70 70 69 80 85 94 86 86 78 61 70 79 91 85 81 87 73 73 80 89 92 89 95 94 92 92 99 98 98 95
96 88 77 36 19 12 10 10 10 10 9 8 15 16 41 73 67 61 71 78 53 59 68 90 78 66 68 67 84 95 91 78 93 95 76 80 84 91 85 78 90 95 94 96 95 99 82
96 92 67 33 23 13 11 10 10 10 9 9 15 12 43 43 33 33 67 81 27 34 60 64 66 80 58 76 100 85 87 87 94 97 73 74 78 76 82 94 96 85 78 79 99 100 64
96 75 59 39 20 20 11 11 11 10 10 10 21 15 19 26 22 24 22 23 29 26 23 29 70 79 81 69 76 78 83 96 96 96 96 96 97 94 90 96 96 100 99 100 100 93 68

GFSGBSN_700_rhum_090.txt.gz
RH
66 75 77 82 80 94 95 93 94 89 96 98 98 96 98 91 99 98 94 84 98 89 88 80 75 63 56 47 37 30 28 26 25 27 28 26 25 10 8 8 12 32 23 28 36 36 35
29 34 67 76 81 89 97 90 100 100 99 95 98 98 97 99 100 99 97 92 93 92 86 83 74 62 53 42 30 29 28 29 29 27 22 17 12 20 24 38 39 30 36 36 32 26 26
7 9 23 52 70 77 88 98 100 96 100 100 99 99 100 100 100 99 98 98 97 97 88 84 69 56 47 37 32 32 28 30 24 20 24 17 11 41 48 47 47 47 48 40 36 33 32
6 7 8 16 40 55 64 74 100 100 99 100 100 100 100 99 99 100 98 98 100 98 86 78 58 41 40 33 26 18 22 24 20 16 14 15 18 33 43 44 45 47 43 44 27 28 25
11 10 9 16 27 44 51 61 88 99 99 99 100 100 100 98 100 100 100 98 99 98 83 70 47 36 34 18 14 17 20 22 21 15 11 11 31 43 33 46 46 38 43 31 26 24 34
12 13 13 17 27 40 52 63 76 89 100 100 100 99 100 100 100 98 100 99 99 90 68 52 33 26 17 20 18 20 24 16 16 22 30 26 19 16 23 43 45 24 25 28 37 34 33
13 14 19 24 41 46 56 69 67 70 99 99 99 100 100 100 100 100 99 100 99 92 66 46 17 15 17 17 19 15 22 15 16 21 23 33 42 18 15 18 18 25 34 37 36 34 36
13 17 22 33 44 56 60 71 79 94 100 98 89 98 100 100 98 99 98 99 89 42 21 17 8 6 12 21 8 9 23 17 17 12 34 50 47 27 39 42 40 40 40 40 36 36 36
15 21 29 42 53 76 78 69 95 94 87 96 98 100 99 99 99 99 96 85 76 21 16 18 15 6 3 6 10 20 28 18 17 31 43 50 24 44 48 45 43 43 43 41 40 40 40
22 30 41 60 68 75 84 98 96 100 99 99 100 99 97 100 96 86 70 34 8 8 5 5 5 6 7 21 24 23 23 22 36 46 53 53 42 49 47 48 44 45 48 45 43 42 40
29 57 96 91 100 100 99 99 100 100 99 98 96 96 100 99 82 86 35 8 11 5 57 24 20 34 23 22 51 39 50 36 20 25 46 40 41 39 41 40 40 40 39 40 41 47 45
93 100 100 97 100 100 99 99 97 96 97 96 98 94 75 49 88 36 42 19 7 17 66 48 44 52 49 53 54 49 58 38 36 36 34 29 26 34 32 31 37 36 38 40 42 50 62
85 82 86 89 97 95 96 97 96 96 96 96 100 95 79 90 62 49 16 22 10 96 19 58 58 60 32 29 32 41 46 29 34 43 42 32 28 28 26 27 38 37 40 64 71 67 72
90 97 92 94 96 96 95 94 97 97 97 98 98 95 93 61 38 18 16 8 94 17 36 36 42 35 29 24 24 24 14 36 48 39 44 50 34 24 23 47 39 35 39 58 82 70 47
82 90 94 96 96 94 95 93 95 94 94 96 89 67 38 23 38 15 8 63 53 40 33 32 33 26 15 18 15 23 31 30 39 34 43 62 47 40 39 50 49 45 48 49 52 53 67
82 88 93 98 100 96 89 88 94 98 96 95 63 53 60 18 13 18 15 54 49 39 34 26 18 14 22 28 30 30 30 28 30 37 42 44 44 51 32 41 54 57 52 52 61 81 84
87 89 90 89 87 88 87 93 97 94 91 79 64 31 11 16 30 8 27 48 38 38 36 22 19 19 25 26 30 31 31 37 33 37 33 35 40 43 40 48 62 51 57 69 74 58 83
84 82 83 85 83 92 96 94 66 53 19 17 48 44 37 14 8 20 59 40 27 34 29 15 17 25 26 29 29 31 43 39 46 47 43 37 35 49 51 27 29 34 70 89 98 89 81
82 82 82 85 92 100 95 95 65 54 78 65 24 32 10 9 39 30 61 48 42 43 29 26 39 37 33 36 34 52 51 52 61 53 45 48 51 58 36 22 36 57 87 93 94 96 98
86 79 86 93 99 92 85 59 40 25 14 41 55 44 27 26 47 56 62 59 52 42 33 50 60 56 50 56 64 58 56 51 63 65 65 63 68 70 74 66 52 54 67 62 83 98 95
88 91 99 96 85 50 28 37 22 12 30 48 41 16 20 43 64 69 66 49 48 40 26 58 58 37 50 59 57 59 59 56 52 67 66 68 71 84 70 57 55 61 61 49 60 76 97
97 97 95 75 69 66 43 23 19 49 35 17 30 31 37 52 72 80 50 75 68 67 58 67 66 67 78 72 70 71 68 59 58 44 54 58 67 78 33 24 41 85 59 58 44 44 69
96 88 81 78 39 18 22 54 37 10 12 18 23 37 50 72 58 44 50 66 72 70 58 60 64 60 56 60 64 60 58 52 49 46 40 56 72 69 61 70 75 71 56 35 29 58 78
95 82 37 35 48 63 48 11 9 12 58 15 17 38 64 50 71 80 71 67 60 55 55 71 74 71 53 53 39 17 17 24 33 31 31 25 43 70 85 82 98 63 78 84 97 88 98
95 73 40 27 13 10 9 11 12 13 9 11 16 37 57 74 78 80 76 70 57 50 62 60 64 60 66 58 35 46 55 60 53 61 65 66 77 94 92 79 62 58 92 96 95 98 98
95 76 49 32 16 10 35 25 10 9 10 10 12 29 45 64 74 73 70 53 56 73 82 84 84 80 57 47 58 71 76 88 79 67 83 84 93 96 99 95 97 86 83 89 96 96 99
97 92 54 33 20 36 61 18 10 10 9 9 15 29 60 48 64 67 46 32 39 46 48 42 54 56 60 58 93 93 83 74 94 95 96 76 99 93 92 94 82 93 92 98 97 97 98
97 95 86 59 27 17 39 10 10 10 9 9 17 20 48 38 44 52 31 19 12 20 31 23 40 64 47 70 76 65 70 79 95 97 99 96 96 97 97 96 95 95 96 91 97 97 95
97 96 91 69 23 25 25 10 11 10 9 10 14 13 24 48 24 32 34 28 27 23 17 16 28 40 61 60 39 38 64 85 94 96 95 94 96 96 96 95 96 96 100 96 98 100 100

GFSGBSN_700_rhum_096.txt.gz
RH
4 4 3 3 3 3 3 5 10 17 34 61 78 86 92 88 98 95 91 89 91 89 85 86 90 82 82 85 65 73 65 60 51 44 32 25 20 24 27 26 15 8 11 13 17 22 20
6 6 5 5 5 4 4 4 4 4 14 42 69 81 89 99 96 100 100 100 99 90 93 83 95 86 83 81 69 66 62 53 43 36 31 28 26 24 21 22 22 21 24 22 19 16 18
8 8 8 8 7 8 7 6 6 6 5 6 20 52 72 82 100 98 97 99 97 100 90 92 93 83 74 65 75 79 68 62 43 34 30 30 30 25 27 23 21 20 23 25 22 21 28
11 11 12 11 9 9 9 8 6 6 7 8 9 22 68 82 94 79 97 100 95 99 99 100 93 97 73 72 72 77 73 63 38 33 31 29 28 21 29 29 32 39 42 40 34 32 33
11 13 14 15 11 9 10 10 8 7 7 10 10 12 24 60 73 89 100 99 100 100 100 100 100 93 73 70 64 66 66 61 32 20 26 28 19 34 39 33 36 39 35 37 33 29 21
12 12 13 14 14 10 9 9 8 9 9 10 15 16 25 34 52 79 98 96 100 96 100 100 100 99 83 82 78 59 38 28 17 15 25 28 21 37 38 36 44 39 43 41 34 20 20
13 12 12 13 12 11 10 8 8 8 11 13 16 20 32 45 53 78 100 100 99 98 98 98 99 89 79 73 59 41 32 20 18 28 28 25 32 33 20 26 35 37 38 30 18 26 37
14 11 11 13 10 9 9 9 9 10 14 20 22 26 47 54 58 99 99 100 99 96 96 96 97 96 98 89 35 31 35 37 36 33 36 45 43 27 27 25 29 32 34 33 38 38 48
9 8 6 9 10 8 8 8 10 13 18 28 38 46 61 70 80 97 95 99 99 98 99 75 67 69 79 97 72 33 47 46 47 38 41 43 40 31 39 41 49 48 52 46 47 46 48
6 4 3 6 8 10 10 9 15 24 28 51 72 89 60 89 97 79 100 100 98 99 96 67 58 46 51 74 86 42 49 43 43 32 32 48 41 29 46 51 50 54 46 45 44 50 50
6 4 3 3 11 17 16 20 31 72 91 62 66 95 99 99 95 100 99 98 98 97 86 41 33 32 43 54 45 37 43 37 42 37 38 42 32 46 33 32 44 48 42 40 41 48 50
6 6 6 9 12 18 34 33 67 97 94 99 97 98 96 99 100 98 98 97 97 68 74 42 31 29 26 19 27 23 24 52 43 41 46 28 45 48 45 41 43 41 41 39 42 44 57
8 10 13 20 24 33 55 63 95 100 99 98 98 98 99 99 97 96 98 97 91 84 38 49 51 30 25 34 45 38 50 55 46 51 47 38 37 36 38 40 35 29 36 50 52 64 60
18 28 40 46 68 83 88 100 100 97 96 95 96 96 92 94 97 96 96 96 75 43 42 40 67 47 36 46 62 59 55 53 56 56 52 50 42 45 45 41 40 50 49 45 64 71 59
49 61 63 68 99 98 98 99 94 92 93 96 97 94 91 95 96 96 96 97 72 60 41 31 83 72 61 58 59 65 66 63 57 52 48 46 49 52 51 48 41 54 54 52 52 49 60
86 85 77 75 81 87 93 96 96 94 94 95 94 95 92 92 93 96 97 93 62 56 52 63 94 87 42 35 46 53 57 55 50 42 38 37 33 42 46 43 48 51 61 73 70 86 75
92 96 89 78 77 80 85 85 84 83 93 97 95 96 98 92 90 97 96 91 86 55 74 84 94 72 32 31 33 45 43 42 41 34 31 30 29 34 34 32 28 24 26 46 77 90 97
93 99 92 84 78 80 83 87 86 83 89 98 96 84 93 92 93 92 87 70 84 54 88 64 93 73 37 33 32 34 39 39 35 36 35 32 33 31 24 18 13 15 65 69 66 94 94
94 98 95 88 81 77 80 82 89 93 98 99 90 69 42 57 81 74 73 82 78 77 80 93 87 58 48 35 34 32 38 50 54 45 36 32 38 28 52 51 81 72 72 50 55 59 80
99 96 95 86 80 83 93 96 100 96 85 84 86 83 64 51 64 52 69 84 76 80 83 50 68 81 79 51 39 36 51 60 58 51 43 36 38 31 30 24 32 35 40 32 28 77 54
97 95 92 85 85 94 100 98 91 79 64 97 52 39 45 23 69 54 68 56 60 64 64 82 51 43 45 36 39 48 52 57 60 55 53 45 50 57 54 48 60 62 31 12 16 18 63
93 96 90 84 90 97 99 96 63 28 54 93 63 47 65 50 60 58 67 60 69 73 58 44 38 48 48 41 43 50 52 54 52 44 39 45 47 56 55 39 44 46 22 25 38 78 90
92 90 84 90 98 98 96 76 37 79 96 95 75 35 48 53 64 69 61 62 57 49 50 49 44 42 43 40 41 33 26 24 27 26 27 29 32 45 48 68 50 28 22 42 84 89 76
85 90 95 96 96 73 74 82 85 75 50 91 94 75 62 60 52 67 68 67 57 56 49 57 53 45 33 25 21 13 16 14 17 31 38 43 50 56 59 49 60 37 73 76 76 80 98
77 94 96 96 84 46 31 20 15 25 85 93 58 71 49 69 82 77 71 60 61 62 56 45 37 33 32 21 43 61 68 68 75 79 81 86 84 73 66 85 52 55 67 84 90 87 96
83 93 97 95 94 58 71 63 29 78 90 65 46 88 77 66 68 66 69 68 58 52 36 34 40 35 26 54 56 63 72 77 83 90 84 92 100 95 98 96 99 85 88 86 89 99 96
87 82 92 68 25 34 38 67 62 18 15 20 60 91 80 68 66 71 70 60 43 32 32 34 30 41 31 52 49 57 74 84 86 89 97 94 98 98 96 96 84 91 88 88 98 95 96
94 76 82 69 77 88 84 49 12 16 38 29 35 76 70 55 66 72 50 43 31 20 14 20 35 36 42 40 41 53 74 88 89 92 99 96 97 97 97 95 95 91 95 94 95 96 96
95 96 91 74 37 18 12 18 30 12 11 12 22 46 66 68 63 56 31 31 25 16 17 20 22 30 33 26 29 50 74 84 84 95 98 95 97 95 95 95 94 96 96 95 96 96 96

GFSGBSN_700_rhum_099.txt.gz
RH
4 3 3 3 3 3 3 3 3 3 4 5 6 12 33 51 73 94 93 91 89 95 93 88 86 85 81 77 62 75 72 73 69 62 59 52 42 24 19 22 23 22 19 15 11 12 16
6 5 5 5 5 5 5 5 5 5 5 5 5 6 8 25 55 84 98 96 99 96 96 89 91 88 79 75 71 69 71 70 70 60 52 45 42 32 28 26 25 24 24 24 23 21 20
11 9 8 8 8 7 6 6 6 6 6 5 6 7 9 8 23 44 76 79 100 97 98 98 95 90 85 73 85 75 75 74 77 75 61 35 30 30 29 28 24 22 21 22 21 20 21
12 11 9 10 9 9 7 7 7 7 7 7 7 8 9 11 9 13 43 72 99 89 96 98 97 97 79 92 79 78 78 82 84 76 59 35 32 33 32 32 32 30 34 35 32 31 35
14 12 12 10 11 10 9 8 7 7 8 9 9 8 9 11 14 12 27 61 87 99 100 99 99 98 89 90 90 79 68 65 82 85 45 33 33 32 33 34 32 36 39 37 34 28 29
16 15 13 12 12 11 10 9 8 7 8 8 9 8 10 10 14 18 28 56 67 94 100 99 97 90 74 94 94 78 72 50 81 64 31 29 37 34 38 38 38 37 38 37 36 29 28
20 18 16 14 13 11 10 9 8 7 8 8 9 9 10 12 15 22 32 97 76 90 86 82 99 82 74 75 95 71 62 64 39 31 25 27 35 38 31 28 32 40 41 42 33 23 20
19 17 15 13 12 10 9 8 7 7 8 8 8 10 10 16 24 30 59 73 87 99 98 71 89 61 68 87 86 92 88 60 26 17 18 30 32 32 31 27 34 39 35 28 21 31 46
10 10 10 9 7 6 5 4 4 5 6 7 8 10 15 24 33 73 100 83 82 100 100 59 64 65 53 86 64 67 90 89 53 21 24 24 36 30 30 33 36 36 40 36 42 46 44
7 6 6 5 4 3 2 2 3 4 6 9 14 20 27 30 56 96 98 99 92 99 98 57 59 57 53 65 73 85 95 95 91 73 57 54 47 45 49 48 46 51 43 47 49 47 45
8 7 5 4 3 3 3 3 9 12 11 14 21 36 50 68 84 100 68 90 100 98 91 57 52 53 50 51 66 56 95 98 92 93 92 66 49 41 52 46 47 47 47 46 43 42 47
9 8 6 5 4 4 5 11 23 34 35 65 86 97 94 95 99 100 100 98 99 97 92 57 43 33 33 33 60 45 94 96 79 86 61 40 40 49 48 45 30 38 47 45 42 48 53
8 8 8 7 5 6 9 16 23 39 56 90 98 100 100 98 99 98 98 97 97 94 72 63 63 51 32 30 59 62 71 62 59 55 55 50 48 46 47 41 45 47 45 40 48 57 41
14 10 11 9 9 21 52 74 92 95 100 98 100 97 96 95 96 96 96 98 96 78 56 46 41 66 43 30 58 56 44 62 56 49 46 52 51 46 46 47 40 36 36 37 46 49 44
60 18 15 16 38 52 85 94 100 100 99 97 97 97 98 95 96 98 98 95 90 93 82 55 64 90 60 56 69 62 64 61 58 57 52 52 56 58 60 51 46 57 57 48 50 55 50
88 54 29 47 60 76 93 100 100 100 97 97 96 97 94 92 97 97 99 94 86 83 75 56 67 96 62 54 59 63 63 53 54 56 56 44 49 58 51 48 46 55 58 67 64 55 45
98 82 90 79 82 83 88 95 99 94 94 96 97 99 98 96 98 98 96 92 88 90 90 81 92 94 87 47 65 88 83 85 77 57 41 36 28 38 43 43 46 38 44 56 66 86 69
99 98 87 98 94 87 86 92 94 90 89 96 98 100 97 98 88 96 98 87 91 87 94 81 90 94 69 60 51 92 87 87 67 60 44 35 30 29 37 30 25 20 23 28 42 72 98
97 100 97 94 98 92 84 84 86 88 94 98 100 96 97 95 96 93 93 91 88 93 93 94 93 93 86 67 46 54 69 60 41 37 36 33 29 29 43 58 60 58 78 58 54 53 68
97 88 96 94 98 92 81 79 82 87 94 99 97 95 90 96 96 89 85 89 94 87 93 91 94 94 87 58 49 46 47 58 49 48 40 35 25 17 27 40 60 48 59 46 36 79 55
95 97 87 96 95 89 86 93 100 99 96 98 94 82 72 58 78 76 86 91 86 93 95 72 88 80 87 81 61 44 47 48 53 51 45 37 31 28 25 27 26 24 19 27 30 23 42
94 95 96 96 96 95 96 100 97 98 89 95 74 54 71 60 62 71 78 77 81 78 84 88 79 61 55 44 35 39 40 54 55 57 55 47 47 52 43 38 41 37 22 18 24 29 37
99 97 88 84 94 96 96 98 96 86 94 85 93 54 51 56 68 89 68 73 82 93 87 71 56 48 57 53 52 43 52 51 44 38 34 31 32 34 50 51 45 40 25 31 45 77 86
95 94 93 90 95 96 96 97 94 59 49 92 84 80 69 64 62 85 73 78 72 59 50 50 58 56 43 38 29 21 18 17 16 18 21 28 44 54 46 53 45 67 84 89 86 97 96
97 93 88 91 96 96 96 96 59 61 96 94 92 94 81 73 75 79 75 71 68 62 51 56 49 36 29 24 34 60 74 70 82 79 78 80 80 74 78 79 60 79 98 92 94 100 97
85 94 98 95 96 64 95 94 85 90 93 90 94 88 84 72 82 75 74 71 62 62 58 48 31 30 27 31 56 62 69 76 89 89 88 94 98 92 99 91 78 84 95 91 86 100 98
79 100 98 96 93 45 51 68 50 36 89 96 64 95 95 83 75 73 71 67 61 48 30 35 36 34 50 55 59 66 79 84 87 94 100 95 99 100 100 100 84 93 88 89 99 94 92
99 99 100 96 95 91 86 65 52 93 89 76 60 97 95 74 70 72 74 68 45 34 28 23 33 30 48 45 50 69 84 86 89 95 100 98 98 100 100 100 95 89 93 92 96 93 96
96 84 78 52 62 64 65 79 70 27 16 24 91 94 82 70 72 77 51 44 39 20 19 24 22 29 31 33 42 62 74 86 86 96 94 94 94 96 97 96 95 94 94 95 95 96 95

GFSGBSN_700_rhum_102.txt.gz
RH
5 4 4 4 4 3 3 3 3 4 4 4 4 4 4 4 4 7 12 31 48 70 76 60 79 83 71 76 77 79 76 75 73 71 76 74 68 57 45 33 29 24 24 23 22 20 20
5 5 5 5 5 4 5 5 4 5 5 5 4 5 5 6 6 6 6 7 24 32 81 51 75 97 84 45 61 70 80 79 76 75 73 72 61 54 40 37 34 31 31 29 31 27 24
9 10 9 8 8 7 8 7 5 5 5 6 5 5 5 6 7 8 8 7 7 17 31 51 60 97 60 50 88 80 76 85 84 85 81 80 75 43 43 40 39 33 34 36 38 31 32
12 13 11 11 10 9 9 8 6 6 6 7 7 6 6 7 8 8 8 9 12 11 16 35 44 70 78 60 80 85 78 79 87 88 89 87 86 59 48 46 38 35 41 36 35 36 37
16 14 14 14 12 11 12 11 11 9 9 8 7 7 8 8 10 10 9 10 13 14 19 33 46 56 73 51 67 70 70 72 80 90 97 97 85 55 56 52 42 41 35 33 34 41 39
18 17 16 14 13 13 13 14 12 11 10 9 7 7 6 8 10 10 10 14 18 20 24 28 31 38 31 50 67 77 76 68 68 68 80 86 48 59 58 48 42 36 36 34 34 33 30
22 20 18 18 16 15 15 14 13 11 9 8 7 7 7 8 9 9 14 23 47 53 17 16 32 16 42 61 72 70 89 82 87 96 85 72 61 60 52 47 44 42 36 34 35 36 38
18 18 17 17 16 15 13 12 11 10 9 8 7 6 7 8 10 12 20 27 58 38 44 34 31 16 30 62 68 70 72 84 80 78 77 84 80 63 53 51 47 45 40 36 34 33 30
8 7 8 8 8 8 8 8 8 6 6 4 4 5 6 7 13 15 23 48 48 73 99 38 39 33 71 71 54 78 92 96 90 89 64 86 75 56 56 56 53 46 38 34 29 36 44
5 4 5 4 5 5 5 5 5 4 3 2 2 2 4 8 26 20 33 55 52 100 99 63 49 53 53 58 59 60 84 97 97 94 100 89 66 43 66 57 48 40 37 35 39 44 32
7 6 5 4 3 4 5 4 4 3 2 2 2 3 8 17 28 36 61 68 58 99 91 62 69 55 53 53 64 72 78 100 98 96 94 76 82 93 92 57 48 42 44 50 45 47 42
8 8 7 6 5 4 4 3 4 3 3 5 7 16 23 53 62 71 94 83 92 99 92 75 60 49 40 36 40 76 54 100 100 98 97 98 98 91 73 71 66 54 56 54 53 46 42
11 11 8 7 6 5 4 4 4 4 6 18 29 78 78 93 99 89 100 100 98 96 83 69 70 73 64 65 32 83 77 99 98 98 97 96 93 70 63 64 58 80 52 51 52 48 36
80 93 79 13 8 8 6 5 6 6 12 23 44 82 97 99 100 98 98 98 97 95 72 55 49 63 80 67 57 70 100 100 98 81 66 71 65 57 55 53 51 64 47 50 52 35 26
80 83 81 93 21 17 13 15 15 22 45 84 100 100 98 98 95 98 100 97 96 94 86 75 70 80 70 63 51 56 66 76 68 66 59 55 59 52 52 48 50 50 49 39 39 40 36
88 90 82 94 72 43 27 27 40 66 95 98 98 97 97 99 96 100 99 99 93 89 74 72 76 81 81 52 54 58 59 66 64 70 62 58 60 64 58 58 55 61 50 55 50 46 40
98 98 97 100 90 77 84 74 83 89 95 98 96 97 96 97 99 100 100 100 99 90 81 90 92 85 92 65 58 89 68 60 52 61 75 58 51 58 52 51 45 48 56 63 65 57 44
92 89 96 97 90 76 100 100 98 99 100 100 99 98 97 98 97 100 100 100 94 98 92 97 79 90 86 86 95 95 86 82 55 70 79 54 38 39 48 36 37 42 58 55 44 39 52
78 99 97 96 94 84 94 100 99 97 98 98 99 97 100 98 97 99 100 100 96 97 95 99 92 96 94 95 74 95 96 90 90 93 91 56 51 52 48 51 31 48 37 30 32 37 43
71 100 96 96 93 80 89 98 94 99 100 97 98 97 99 99 96 97 100 98 98 94 99 93 99 95 97 93 72 84 93 89 58 50 62 42 30 34 27 40 54 60 62 57 46 61 38
77 97 98 96 100 81 82 90 93 91 99 98 97 100 81 95 98 96 98 95 93 91 98 98 97 96 95 90 64 78 67 57 56 57 43 35 42 25 38 24 34 55 56 51 45 36 38
79 81 93 97 99 97 85 88 94 98 98 97 94 90 77 65 100 94 98 94 86 95 96 91 96 84 96 96 91 76 57 70 67 54 45 38 44 27 45 53 57 51 45 44 45 41 36
58 69 90 97 96 100 92 92 94 96 97 97 92 68 74 86 99 100 98 90 87 88 85 94 85 67 79 62 53 45 48 49 46 48 45 33 22 30 30 52 50 36 47 43 40 47 71
63 79 93 97 97 98 98 95 95 95 96 91 94 79 70 87 88 82 88 92 88 87 92 65 66 71 60 57 53 48 46 47 45 36 24 15 26 45 42 56 55 96 66 78 72 77 71
99 85 97 97 95 94 99 97 95 95 93 96 88 78 82 80 78 89 86 73 83 73 65 59 58 59 51 40 65 67 72 66 53 28 34 51 78 85 76 62 62 95 86 81 80 92 80
96 96 97 98 99 99 100 96 96 94 94 97 96 94 96 89 84 91 90 75 82 69 61 64 59 45 35 36 77 66 58 63 89 100 86 89 95 91 84 72 62 99 93 87 90 100 92
96 96 99 98 100 100 95 96 92 91 89 97 98 96 92 86 82 84 75 79 73 66 74 56 46 40 32 38 66 82 81 88 84 90 100 100 100 92 82 76 91 81 87 92 98 97 87
99 98 97 99 99 79 96 94 92 95 95 93 93 96 96 90 86 83 74 70 62 53 40 31 40 34 56 57 68 69 94 98 100 94 96 98 94 90 85 87 90 89 88 95 90 91 93
98 100 98 98 74 56 93 95 94 76 94 98 82 97 95 83 75 74 74 69 49 36 26 22 26 30 51 42 55 68 99 84 99 97 91 99 86 100 95 96 90 90 92 94 95 95 95